Regional Weather Roundup
Issued by NWS

Home | Current Version | Previous Version | Text Only | Print | Product List | Glossary Off
Versions: 1 2 3 4 5 6 7 8 9 10 11 12 13 14 15 16 17 18 19 20 21 22 23 24 25 26 27 28 29 30 31 32 33 34 35 36 37 38 39 40 41 42 43 44 45 46 47 48 49 50

000
ASUS45 KABQ 130610
RWRNM
WEATHER ROUNDUP FOR NEW MEXICO
NATIONAL WEATHER SERVICE ALBUQUERQUE NM
1200 AM MDT SUN JUL 13 2014

NOTE: "FAIR" MEANS FEW OR NO CLOUDS BELOW 12,000 FEET AGL WITH NO
       SIGNIFICANT WEATHER OR OBSTRUCTIONS TO VISION.

      THIS PRODUCT IS RELEASED AS TWO VERSIONS.  ONE VERSION NEAR
      THE TOP OF THE HOUR CONTAINING PRELIMINARY DATA FROM ALBUQUERQUE
      AND OTHER STATIONS.  A FINAL VERSION WITH ADDITIONAL DATA IS
      ISSUED ABOUT 10 MINUTES AFTER THE HOUR.

NMZ501-503-504-510>518-130700-
NORTHWEST PLATEAU/NORTHCENTRAL MOUNTAINS

CITY           SKY/WX    TMP DP  RH WIND       PRES   REMARKS
FARMINGTON     CLEAR     73  53  49 E3        30.21R
6HR MIN TEMP:  73; 6HR MAX TEMP:  83;

LOS ALAMOS     MOCLDY    67  48  50 N8        30.41R
SANTA FE       PTCLDY    70  49  47 SE3       30.33R
6HR MIN TEMP:  70; 6HR MAX TEMP:  84;

TAOS             N/A    N/A N/A N/A MISG        N/A
ANGEL FIRE     FAIR      54  52  94 CALM      30.55R

$$
NMZ402-403-502-505>509-130700-
WESTCENTRAL MOUNTAINS/SOUTHWEST MOUNTAINS

CITY           SKY/WX    TMP DP  RH WIND       PRES   REMARKS
GALLUP         MOCLDY    63  56  78 CALM      30.30F
6HR MIN TEMP:  63; 6HR MAX TEMP:  91; 6HR PCP:  0.20;

GRANTS         MOCLDY    63  56  77 CALM      30.32S
SILVER CITY    MOCLDY    73  55  53 E3        30.27R

$$
NMZ407-409-411-412-130700-
SOUTHERN DESERTS

CITY           SKY/WX    TMP DP  RH WIND       PRES   REMARKS
LORDSBURG      FAIR      73  59  60 CALM      30.15S
DEMING         CLOUDY    78  58  49 CALM      30.16R
6HR MIN TEMP:  78; 6HR MAX TEMP:  88; 6HR PCP: TRACE;

LAS CRUCES     CLOUDY    74  59  59 CALM      30.19R
ALAMOGORDO     CLEAR     70  57  64 N5        30.18R
T OR C         PTCLDY    78  53  41 SW7       30.20R
6HR MIN TEMP:  77; 6HR MAX TEMP:  91;


$$
NMZ519>523-130700-
CENTRAL VALLEYS/CENTRAL HIGHLANDS

CITY           SKY/WX    TMP DP  RH WIND       PRES   REMARKS
ALBUQUERQUE    PTCLDY    77  50  38 S3        30.24R
6HR MIN TEMP:  77; 6HR MAX TEMP:  90;

DOUBLE EAGLE   PTCLDY    73  49  43 S7        30.28R
MORIARTY ARPT  FAIR      65  51  59 S3        30.34R
6HR MIN TEMP:  65; 6HR MAX TEMP:  83;

CLINES CORNERS CLEAR     64  49  57 E5        30.37S
6HR MIN TEMP:  63; 6HR MAX TEMP:  82;

BELEN          FAIR      73  56  53 SE12      30.23R
6HR MIN TEMP:  73; 6HR MAX TEMP:  89;

SOCORRO        FAIR      74  55  51 S7        30.20R
6HR MIN TEMP:  73; 6HR MAX TEMP:  92;


$$
NMZ524>526-539-540-130700-
SOUTHCENTRAL MOUNTAINS

CITY           SKY/WX    TMP DP  RH WIND       PRES   REMARKS
RUIDOSO        PTCLDY    64  52  63 CALM      30.38R

$$
NMZ527>531-130700-
NORTHEAST HIGHLANDS/NORTHEAST PLAINS

CITY           SKY/WX    TMP DP  RH WIND       PRES   REMARKS
LAS VEGAS      MOCLDY    64  48  56 NW5       30.40R
6HR MIN TEMP:  61; 6HR MAX TEMP:  80;

RATON          CLOUDY    68  53  58 N17       30.39R
6HR MIN TEMP:  68; 6HR MAX TEMP:  88;

CLAYTON        MOCLDY    71  56  58 N12       30.30R
6HR MIN TEMP:  71; 6HR MAX TEMP:  89;


$$
NMZ532>537-130700-
EASTCENTRAL PLAINS

CITY           SKY/WX    TMP DP  RH WIND       PRES   REMARKS
TUCUMCARI      CLEAR     74  56  53 E6        30.18R
6HR MIN TEMP:  74; 6HR MAX TEMP:  91;

CANNON AFB     NOT AVBL
CLOVIS AIRPORT CLEAR     70  57  64 S6        30.25R

$$
NMZ028-029-538-130700-
SOUTHEAST PLAINS

CITY           SKY/WX    TMP DP  RH WIND       PRES   REMARKS
ROSWELL        PTCLDY    74  61  63 SE8       30.15R
6HR MIN TEMP:  74; 6HR MAX TEMP:  91;

ARTESIA        PTCLDY    75  63  64 SE9       30.15R
CARLSBAD       CLEAR     74  62  66 SE8       30.14R
6HR MIN TEMP:  74; 6HR MAX TEMP:  80; 6HR PCP: TRACE;

HOBBS          CLEAR     75  59  57 SE15      30.19R


$$


USA.gov is the U.S. government's official web portal to all federal, state and local government web resources and services.